TimePDT,TemperatureF,Dew PointF,Humidity,Sea Level PressureIn,VisibilityMPH,Wind Direction,Wind SpeedMPH,Gust SpeedMPH,PrecipitationIn,Events,Conditions,WindDirDegrees,DateUTC
12:15 AM,44.6,41.0,87,30.33,10.0,NNW,3.5,-,N/A,,Mostly Cloudy,330,2013-05-10 07:15:00
12:35 AM,44.6,41.0,87,30.33,10.0,Calm,Calm,-,N/A,Rain,Light Rain,0,2013-05-10 07:35:00
12:55 AM,44.6,41.0,87,30.34,10.0,Calm,Calm,-,N/A,,Scattered Clouds,0,2013-05-10 07:55:00
1:15 AM,42.8,41.0,93,30.33,10.0,SSE,3.5,-,N/A,,Clear,160,2013-05-10 08:15:00
1:35 AM,41.0,41.0,100,30.33,10.0,South,3.5,-,N/A,,Clear,180,2013-05-10 08:35:00
1:55 AM,41.0,39.2,93,30.33,2.0,Calm,Calm,-,N/A,,Clear,0,2013-05-10 08:55:00
2:15 AM,41.0,41.0,100,30.33,10.0,Calm,Calm,-,N/A,,Clear,0,2013-05-10 09:15:00
2:35 AM,41.0,41.0,100,30.33,3.0,Calm,Calm,-,N/A,,Clear,0,2013-05-10 09:35:00
2:55 AM,37.4,37.4,100,30.33,0.2,SSW,3.5,-,N/A,Fog,Fog,210,2013-05-10 09:55:00
3:15 AM,39.2,39.2,100,30.34,0.2,WNW,3.5,-,N/A,Fog,Fog,290,2013-05-10 10:15:00
3:35 AM,37.4,37.4,100,30.33,0.5,Calm,Calm,-,N/A,Fog,Fog,0,2013-05-10 10:35:00
3:55 AM,37.4,37.4,100,30.33,0.2,Calm,Calm,-,N/A,Fog,Fog,0,2013-05-10 10:55:00
4:15 AM,39.2,39.2,100,30.33,0.2,Calm,Calm,-,N/A,Fog,Fog,0,2013-05-10 11:15:00
4:35 AM,37.4,37.4,100,30.34,0.2,Calm,Calm,-,N/A,Fog,Fog,0,2013-05-10 11:35:00
4:55 AM,35.6,35.6,100,30.34,0.2,SSW,3.5,-,N/A,Fog,Fog,210,2013-05-10 11:55:00
5:15 AM,35.6,35.6,100,30.34,0.2,Calm,Calm,-,N/A,Fog,Fog,0,2013-05-10 12:15:00
5:35 AM,37.4,37.4,100,30.34,0.2,Calm,Calm,-,N/A,Fog,Fog,0,2013-05-10 12:35:00
5:55 AM,37.4,37.4,100,30.35,0.2,Calm,Calm,-,N/A,Fog,Fog,0,2013-05-10 12:55:00
6:15 AM,37.4,37.4,100,30.35,0.2,Calm,Calm,-,N/A,Fog,Fog,0,2013-05-10 13:15:00
6:35 AM,37.4,37.4,100,30.36,0.2,Calm,Calm,-,N/A,Fog,Fog,0,2013-05-10 13:35:00
6:45 AM,37.4,37.4,100,30.36,0.2,Calm,Calm,-,N/A,Fog,Fog,0,2013-05-10 13:45:00
7:50 AM,39.2,39.2,100,30.37,0.2,Calm,Calm,-,N/A,Fog,Fog,0,2013-05-10 14:50:00
8:55 AM,44.6,44.6,100,30.37,10.0,Calm,Calm,-,N/A,,Partly Cloudy,0,2013-05-10 15:55:00
9:55 AM,57.2,46.4,67,30.37,10.0,Calm,Calm,-,N/A,,Partly Cloudy,0,2013-05-10 16:55:00
10:55 AM,62.6,42.8,48,30.37,10.0,Calm,Calm,-,N/A,,Scattered Clouds,0,2013-05-10 17:55:00
11:50 AM,66.2,39.2,37,30.36,10.0,Calm,Calm,-,N/A,,Clear,0,2013-05-10 18:50:00
1:50 PM,69.8,37.4,31,30.35,10.0,NE,3.5,-,N/A,,Scattered Clouds,40,2013-05-10 20:50:00
1:55 PM,69.8,37.4,31,30.35,10.0,SSW,5.8,-,N/A,,Scattered Clouds,200,2013-05-10 20:55:00
2:55 PM,71.6,35.6,27,30.34,10.0,WSW,5.8,-,N/A,,Scattered Clouds,240,2013-05-10 21:55:00
3:45 PM,68.0,35.6,30,30.33,10.0,SE,8.1,-,N/A,,Scattered Clouds,140,2013-05-10 22:45:00
4:55 PM,68.0,41.0,37,30.32,10.0,WNW,9.2,-,N/A,,Scattered Clouds,290,2013-05-10 23:55:00
5:45 PM,68.0,35.6,30,30.32,10.0,SW,8.1,-,N/A,,Scattered Clouds,230,2013-05-11 00:45:00
5:55 PM,66.2,39.2,37,30.32,10.0,WSW,10.4,-,N/A,,Clear,240,2013-05-11 00:55:00
6:15 PM,66.2,39.2,37,30.32,10.0,WSW,10.4,-,N/A,,Clear,240,2013-05-11 01:15:00
6:35 PM,66.2,41.0,40,30.32,10.0,SW,8.1,-,N/A,,Clear,220,2013-05-11 01:35:00
6:55 PM,66.2,44.6,46,30.32,10.0,SW,8.1,-,N/A,,Clear,220,2013-05-11 01:55:00
7:15 PM,64.4,44.6,49,30.33,10.0,SW,5.8,-,N/A,,Clear,230,2013-05-11 02:15:00
7:35 PM,64.4,44.6,49,30.33,10.0,West,6.9,-,N/A,,Clear,260,2013-05-11 02:35:00
7:55 PM,60.8,44.6,55,30.34,10.0,SW,4.6,-,N/A,,Clear,220,2013-05-11 02:55:00
8:15 PM,59.0,44.6,59,30.35,10.0,SE,4.6,-,N/A,,Clear,140,2013-05-11 03:15:00
8:35 PM,55.4,44.6,67,30.36,10.0,SSE,5.8,-,N/A,,Clear,150,2013-05-11 03:35:00
8:55 PM,53.6,46.4,77,30.37,10.0,SSE,5.8,-,N/A,,Clear,150,2013-05-11 03:55:00
9:15 PM,50.0,44.6,82,30.38,10.0,SSE,3.5,-,N/A,,Clear,150,2013-05-11 04:15:00
9:35 PM,51.8,44.6,76,30.38,10.0,Calm,Calm,-,N/A,,Clear,0,2013-05-11 04:35:00
9:55 PM,51.8,44.6,76,30.39,10.0,ENE,3.5,-,N/A,,Clear,70,2013-05-11 04:55:00
10:15 PM,48.2,44.6,87,30.40,10.0,ENE,3.5,-,N/A,,Clear,70,2013-05-11 05:15:00
10:35 PM,46.4,42.8,87,30.40,10.0,SSE,3.5,-,N/A,,Clear,160,2013-05-11 05:35:00
10:55 PM,46.4,44.6,93,30.40,10.0,Calm,Calm,-,N/A,,Clear,0,2013-05-11 05:55:00
11:15 PM,44.6,41.0,87,30.40,10.0,Calm,Calm,-,N/A,,Clear,0,2013-05-11 06:15:00
11:35 PM,46.4,42.8,87,30.40,10.0,Calm,Calm,-,N/A,,Clear,0,2013-05-11 06:35:00
11:55 PM,48.2,44.6,87,30.41,10.0,Calm,Calm,-,N/A,,Clear,0,2013-05-11 06:55:00